kh6hz-w2 Mattapoisett MA US current weather conditions

sailwx.info

Wind from 248 at 2 knots gusting 5

Air temperature 28.3° C
Dewpoint 26.5° C

Last reported at 2020-Aug-10 19:00 UTC.
Time now 2020-Aug-10 19:19 UTC

Location: N 41°38' W 070°50'.
View on Google Maps.

See reports from other nearby stations

  
Tides and Currents Weather Stations Pressure Air Temp Water Temp Dewpoint Dewpoint Depression Visibility Wind Speed Wind Dir Waves Ship Positions
date/time (UTC)wind fromknots sea level pressurealtimeterstation pressurevisibilityair tempwater tempwave heightnotes
2020-Aug-10 19:00 248 2 gusting 5 28.3
2020-Aug-10 18:55 203 2 gusting 5 28.3
2020-Aug-10 18:50 270 1 gusting 5 28.3
2020-Aug-10 18:45 248 2 gusting 7 28.3
2020-Aug-10 18:40 248 6 gusting 6 28.9
2020-Aug-10 18:35 248 1 gusting 6 28.3
2020-Aug-10 18:30 180 1 gusting 6 28.3
2020-Aug-10 18:25 293 1 gusting 10 28.3
2020-Aug-10 18:20 270 2 gusting 6 28.3
2020-Aug-10 18:15 225 1 gusting 7 27.8
2020-Aug-10 18:10 180 1 gusting 6 28.3
2020-Aug-10 18:05 315 1 gusting 6 27.8
2020-Aug-10 18:00 203 1 gusting 6 27.8
2020-Aug-10 17:55 270 0 gusting 4 27.8
2020-Aug-10 17:50 203 6 gusting 6 27.8
2020-Aug-10 17:45 203 1 gusting 6 27.8
2020-Aug-10 17:40 180 3 gusting 6 27.8
2020-Aug-10 17:35 203 1 gusting 5 27.8
2020-Aug-10 17:30 315 1 gusting 4 27.2
2020-Aug-10 17:25 225 2 gusting 6 27.2
2020-Aug-10 17:20 248 3 gusting 5 27.8
2020-Aug-10 17:15 113 5 gusting 5 27.8
2020-Aug-10 17:10 225 4 gusting 10 27.8
2020-Aug-10 17:05 180 0 gusting 7 26.7
2020-Aug-10 17:00 180 5 gusting 6 27.2
2020-Aug-10 16:55 023 0 gusting 5 27.2
2020-Aug-10 16:50 113 2 gusting 8 27.8
2020-Aug-10 16:45 203 3 gusting 4 27.8
2020-Aug-10 16:40 180 4 gusting 4 27.8
2020-Aug-10 16:35 180 1 gusting 6 27.8
2020-Aug-10 16:30 158 2 gusting 7 27.8
2020-Aug-10 16:25 27.2
2020-Aug-10 16:20 158 5 gusting 7 27.8
2020-Aug-10 16:15 203 2 gusting 5 27.8
2020-Aug-10 16:10 023 1 gusting 3 28.3
2020-Aug-10 16:05 248 4 gusting 4 28.3
2020-Aug-10 16:00 023 4 gusting 4 27.8
2020-Aug-10 15:55 158 1 gusting 5 27.2
2020-Aug-10 15:50 068 5 gusting 5 27.2
2020-Aug-10 15:45 203 1 gusting 6 27.2
2020-Aug-10 15:40 225 2 gusting 6 27.2
2020-Aug-10 15:35 135 3 gusting 6 27.2
2020-Aug-10 15:30 225 2 gusting 6 27.2
2020-Aug-10 15:25 225 6 gusting 6 27.2
2020-Aug-10 15:20 203 3 gusting 6 27.2
2020-Aug-10 15:15 203 5 gusting 6 26.7
2020-Aug-10 15:10 248 1 gusting 4 26.7
2020-Aug-10 15:05 225 3 gusting 6 26.7
2020-Aug-10 15:00 135 4 gusting 6 26.7
2020-Aug-10 14:55 203 4 gusting 5 27.2
2020-Aug-10 14:50 338 0 gusting 4 27.2
2020-Aug-10 14:45 270 3 gusting 4 26.7
2020-Aug-10 14:40 203 2 gusting 5 26.7
2020-Aug-10 14:35 248 0 gusting 6 26.7
2020-Aug-10 14:30 225 2 gusting 6 26.7
2020-Aug-10 14:25 203 3 gusting 6 26.7
2020-Aug-10 14:20 225 4 gusting 5 27.2
2020-Aug-10 14:15 225 1 gusting 5 26.7
2020-Aug-10 14:10 270 5 gusting 5 26.7
2020-Aug-10 14:00 203 2 gusting 2 26.7
2020-Aug-10 13:50 270 2 gusting 5 26.7
2020-Aug-10 13:45 225 2 gusting 4 26.7
2020-Aug-10 13:40 26.7
2020-Aug-10 13:35 225 1 gusting 5 26.7
2020-Aug-10 13:30 26.7
2020-Aug-10 13:25 180 1 gusting 4 26.1
2020-Aug-10 13:20 270 0 gusting 3 26.7
2020-Aug-10 13:15 023 1 gusting 3 26.7
2020-Aug-10 13:10 225 26.1
2020-Aug-10 13:05 270 26.1
2020-Aug-10 13:00 225 2 gusting 2 26.1
2020-Aug-10 12:55 225 0 gusting 4 25.6
2020-Aug-10 12:50 270 0 gusting 3 26.1
2020-Aug-10 12:45 225 3 gusting 5 25.6
2020-Aug-10 12:40 113 3 gusting 3 25.6
2020-Aug-10 12:35 248 0 gusting 2 25.6
2020-Aug-10 12:30 270 0 gusting 3 25.6
2020-Aug-10 12:25 248 25.6
2020-Aug-10 12:20 203 0 gusting 3 25.0
2020-Aug-10 12:15 203 1 gusting 1 25.0
2020-Aug-10 12:10 225 0 gusting 3 25.0
2020-Aug-10 12:05 225 0 gusting 3 25.0
2020-Aug-10 12:00 023 25.0
2020-Aug-10 11:55 270 0 gusting 1 24.4
2020-Aug-10 11:50 158 24.4
2020-Aug-10 11:45 225 24.4
2020-Aug-10 11:40 248 23.9
2020-Aug-10 11:35 225 23.9
2020-Aug-10 11:30 248 0 gusting 3 23.9
2020-Aug-10 11:25 270 2 gusting 3 23.3
2020-Aug-10 11:20 203 23.3
2020-Aug-10 11:15 225 23.3
2020-Aug-10 11:10 225 2 gusting 2 22.8
2020-Aug-10 11:05 203 22.8
2020-Aug-10 11:00 248 0 gusting 2 22.8
2020-Aug-10 10:55 225 22.8
2020-Aug-10 10:50 158 22.8
2020-Aug-10 10:45 180 0 gusting 2 22.8
2020-Aug-10 10:40 225 0 gusting 3 22.8
2020-Aug-10 10:35 180 2 gusting 2 22.8
2020-Aug-10 10:30 248 22.8
2020-Aug-10 10:25 270 0 gusting 1 22.8
2020-Aug-10 10:20 248 22.8
2020-Aug-10 10:15 248 22.8
2020-Aug-10 10:10 203 1 gusting 2 22.8
2020-Aug-10 10:05 225 22.8
2020-Aug-10 10:00 225 22.8
2020-Aug-10 09:55 248 1 gusting 1 22.8
2020-Aug-10 09:50 225 2 gusting 4 22.8
2020-Aug-10 09:45 203 22.8
2020-Aug-10 09:40 225 0 gusting 2 22.8
2020-Aug-10 09:35 338 22.8
2020-Aug-10 09:30 203 1 gusting 3 22.8
2020-Aug-10 09:25 248 22.8
2020-Aug-10 09:20 225 1 gusting 4 22.8
2020-Aug-10 09:15 203 1 gusting 4 22.8
2020-Aug-10 09:10 248 2 gusting 2 22.8
2020-Aug-10 09:05 225 1 gusting 3 22.8
2020-Aug-10 09:00 158 4 gusting 6 22.8
2020-Aug-10 08:55 203 0 gusting 1 22.2
2020-Aug-10 08:50 203 1 gusting 3 22.2
2020-Aug-10 08:45 225 0 gusting 2 22.2
2020-Aug-10 08:40 225 0 gusting 2 22.2
2020-Aug-10 08:35 225 0 gusting 3 22.2
2020-Aug-10 08:30 270 22.2
2020-Aug-10 08:25 270 22.2
2020-Aug-10 08:20 293 1 gusting 3 22.2
2020-Aug-10 08:15 203 3 gusting 4 22.2
2020-Aug-10 08:10 225 1 gusting 3 22.2
2020-Aug-10 08:05 203 1 gusting 3 22.2
2020-Aug-10 08:00 158 1 gusting 3 22.2
2020-Aug-10 07:55 225 1 gusting 5 22.2
2020-Aug-10 07:50 203 1 gusting 3 22.2
2020-Aug-10 07:45 180 3 gusting 5 22.2
2020-Aug-10 07:40 180 0 gusting 4 22.2
2020-Aug-10 07:35 248 1 gusting 4 22.2
2020-Aug-10 07:30 338 4 gusting 4 22.2
2020-Aug-10 07:25 158 0 gusting 3 22.2
2020-Aug-10 07:20 248 0 gusting 1 22.2
2020-Aug-10 07:15 225 3 gusting 4 22.2
2020-Aug-10 07:10 248 4 gusting 4 22.2
2020-Aug-10 07:05 158 1 gusting 3 22.2
2020-Aug-10 07:00 270 22.2
2020-Aug-10 06:55 225 22.2
2020-Aug-10 06:50 225 22.2
2020-Aug-10 06:45 225 0 gusting 5 22.2
2020-Aug-10 06:40 225 0 gusting 3 22.2
2020-Aug-10 06:35 225 1 gusting 3 22.2
2020-Aug-10 06:30 203 1 gusting 5 22.2
2020-Aug-10 06:25 225 22.2
2020-Aug-10 06:20 203 1 gusting 3 22.2
2020-Aug-10 06:15 225 2 gusting 2 22.2
2020-Aug-10 06:10 045 1 gusting 5 22.2
2020-Aug-10 06:05 225 1 gusting 4 22.2
2020-Aug-10 06:00 135 22.2
2020-Aug-10 05:55 225 0 gusting 4 22.2
2020-Aug-10 05:50 315 2 gusting 4 22.2
2020-Aug-10 05:45 023 0 gusting 4 22.2
2020-Aug-10 05:40 225 0 gusting 4 22.2
2020-Aug-10 05:35 248 1 gusting 3 22.2
2020-Aug-10 05:30 203 1 gusting 4 22.2
2020-Aug-10 05:25 045 1 gusting 2 22.2
2020-Aug-10 05:20 203 2 gusting 4 22.2
2020-Aug-10 05:15 225 22.8
2020-Aug-10 05:10 203 3 gusting 3 22.8
2020-Aug-10 05:05 225 1 gusting 1 22.8
2020-Aug-10 05:00 180 1 gusting 6 22.8
2020-Aug-10 04:55 225 0 gusting 3 22.8
2020-Aug-10 04:50 225 22.8
2020-Aug-10 04:45 293 1 gusting 3 22.8
2020-Aug-10 04:40 248 0 gusting 2 22.8
2020-Aug-10 04:35 248 0 gusting 2 22.8
2020-Aug-10 04:30 270 22.8
2020-Aug-10 04:25 270 3 gusting 3 22.8
2020-Aug-10 04:20 248 22.8
2020-Aug-10 04:15 203 3 gusting 3 22.8
2020-Aug-10 04:10 225 0 gusting 4 22.8
2020-Aug-10 04:05 315 22.8
2020-Aug-10 04:00 293 1 gusting 4 22.8
2020-Aug-10 03:55 225 3 gusting 4 22.8
2020-Aug-10 03:50 203 0 gusting 3 22.8
2020-Aug-10 03:45 248 22.8
2020-Aug-10 03:40 180 2 gusting 3 22.8
2020-Aug-10 03:35 203 1 gusting 4 22.8
2020-Aug-10 03:30 135 0 gusting 3 22.8
2020-Aug-10 03:25 225 2 gusting 2 22.8
2020-Aug-10 03:20 203 1 gusting 5 22.8
2020-Aug-10 03:15 225 1 gusting 4 22.8
2020-Aug-10 03:10 248 22.8
2020-Aug-10 03:05 203 1 gusting 6 22.8
2020-Aug-10 03:00 225 1 gusting 4 22.8
2020-Aug-10 02:55 248 0 gusting 2 22.8
2020-Aug-10 02:50 225 1 gusting 5 22.8
2020-Aug-10 02:45 248 0 gusting 6 22.8
2020-Aug-10 02:35 225 1 gusting 4 22.8
2020-Aug-10 02:30 270 0 gusting 3 22.8
2020-Aug-10 02:25 203 1 gusting 6 22.2
2020-Aug-10 02:20 270 4 gusting 4 22.2
2020-Aug-10 02:15 203 1 gusting 2 22.2
2020-Aug-10 02:10 270 22.2
2020-Aug-10 02:05 158 1 gusting 5 22.2
2020-Aug-10 02:00 248 0 gusting 3 22.2
2020-Aug-10 01:55 203 0 gusting 1 22.2
2020-Aug-10 01:50 158 1 gusting 3 22.2
2020-Aug-10 01:45 203 5 gusting 5 22.2
2020-Aug-10 01:40 203 3 gusting 3 22.2
2020-Aug-10 01:35 203 1 gusting 2 22.8
2020-Aug-10 01:30 180 3 gusting 4 22.8
2020-Aug-10 01:25 158 0 gusting 3 22.8
2020-Aug-10 01:20 203 0 gusting 3 22.8
2020-Aug-10 01:15 270 1 gusting 4 22.8
2020-Aug-10 01:10 248 0 gusting 5 22.8
2020-Aug-10 01:05 225 0 gusting 3 22.8
2020-Aug-10 01:00 22.8
2020-Aug-10 00:55 225 0 gusting 3 22.8
2020-Aug-10 00:50 248 1 gusting 2 22.8
2020-Aug-10 00:40 225 2 gusting 2 22.8
2020-Aug-10 00:35 203 2 gusting 3 22.8
2020-Aug-10 00:30 225 2 gusting 4 22.8
2020-Aug-10 00:25 225 22.8
2020-Aug-10 00:20 248 1 gusting 3 22.8
2020-Aug-10 00:15 203 1 gusting 1 22.8
2020-Aug-10 00:10 248 3 gusting 5 22.8
2020-Aug-10 00:05 225 22.8
2020-Aug-10 00:00 338 2 gusting 3 22.8
2020-Aug-09 23:55 203 1 gusting 3 22.8
2020-Aug-09 23:50 158 2 gusting 3 22.8
2020-Aug-09 23:45 270 23.3
2020-Aug-09 23:40 158 0 gusting 3 23.3
2020-Aug-09 23:35 113 0 gusting 2 23.3
2020-Aug-09 23:30 203 0 gusting 2 23.3
2020-Aug-09 23:25 203 0 gusting 1 23.3
2020-Aug-09 23:20 315 1 gusting 3 23.9
2020-Aug-09 23:10 248 0 gusting 4 23.9
2020-Aug-09 23:05 248 5 gusting 5 23.9
2020-Aug-09 23:00 225 4 gusting 6 23.9
2020-Aug-09 22:55 270 24.4
2020-Aug-09 22:50 203 24.4
2020-Aug-09 22:45 225 4 gusting 4 24.4
2020-Aug-09 22:40 338 2 gusting 2 24.4
2020-Aug-09 22:35 338 2 gusting 2 24.4
2020-Aug-09 22:30 338 6 gusting 6 24.4
2020-Aug-09 22:25 338 2 gusting 2 24.4
2020-Aug-09 22:20 225 24.4
2020-Aug-09 22:15 225 3 gusting 4 24.4
2020-Aug-09 22:10 270 0 gusting 5 24.4
2020-Aug-09 22:05 225 4 gusting 6 24.4
2020-Aug-09 22:00 225 0 gusting 5 24.4
2020-Aug-09 21:55 225 6 gusting 6 24.4
2020-Aug-09 21:50 180 2 gusting 8 25.0
2020-Aug-09 21:45 248 0 gusting 5 25.0
2020-Aug-09 21:40 135 1 gusting 7 25.0
2020-Aug-09 21:35 135 1 gusting 5 25.0
2020-Aug-09 21:30 270 3 gusting 6 25.0
2020-Aug-09 21:25 203 4 gusting 6 25.6
2020-Aug-09 21:20 158 2 gusting 5 25.0
2020-Aug-09 21:15 180 2 gusting 4 25.6
2020-Aug-09 21:10 225 5 gusting 5 25.6
2020-Aug-09 21:05 203 1 gusting 3 25.6
2020-Aug-09 21:00 225 2 gusting 4 25.6
2020-Aug-09 20:55 225 0 gusting 3 26.1
2020-Aug-09 20:50 180 1 gusting 4 26.1
2020-Aug-09 20:45 225 0 gusting 2 26.1
2020-Aug-09 20:40 248 1 gusting 4 26.1
2020-Aug-09 20:35 113 2 gusting 6 26.1
2020-Aug-09 20:30 270 26.1
2020-Aug-09 20:25 180 1 gusting 4 26.1
2020-Aug-09 20:20 225 2 gusting 6 26.1
2020-Aug-09 20:15 203 1 gusting 3 26.1
2020-Aug-09 20:10 203 6 gusting 6 26.1
2020-Aug-09 20:05 135 1 gusting 3 26.1
2020-Aug-09 20:00 225 3 gusting 3 26.1
2020-Aug-09 19:55 203 2 gusting 5 26.7
2020-Aug-09 19:50 180 1 gusting 4 26.7
2020-Aug-09 19:45 090 2 gusting 3 26.7
2020-Aug-09 19:40 248 2 gusting 5 26.7
2020-Aug-09 19:35 203 26.7
2020-Aug-09 19:30 135 3 gusting 3 27.2
2020-Aug-09 19:25 248 0 gusting 5 27.2
2020-Aug-09 19:20 113 3 gusting 6 27.2
2020-Aug-09 19:15 270 2 gusting 6 26.7
2020-Aug-09 19:10 158 3 gusting 6 26.7
2020-Aug-09 19:05 158 2 gusting 3 27.2
2020-Aug-09 19:00 203 4 gusting 6 27.2
2020-Aug-09 18:55 203 2 gusting 6 26.7
2020-Aug-09 18:50 225 3 gusting 5 27.2
2020-Aug-09 18:45 158 1 gusting 3 27.2
2020-Aug-09 18:40 090 4 gusting 5 27.2
2020-Aug-09 18:35 203 2 gusting 6 27.2
2020-Aug-09 18:25 203 0 gusting 5 26.1
2020-Aug-09 18:20 270 1 gusting 5 26.7
2020-Aug-09 18:15 248 3 gusting 6 26.1
2020-Aug-09 18:10 203 2 gusting 6 26.1
2020-Aug-09 18:05 225 4 gusting 6 26.7
2020-Aug-09 18:00 225 3 gusting 7 27.2
2020-Aug-09 17:55 225 1 gusting 6 27.2
2020-Aug-09 17:50 27.2
2020-Aug-09 17:45 248 2 gusting 5 27.2
2020-Aug-09 17:40 158 7 gusting 7 27.2
2020-Aug-09 17:35 248 6 gusting 6 27.2
2020-Aug-09 17:30 203 3 gusting 3 27.2
2020-Aug-09 17:25 225 2 gusting 4 26.7
2020-Aug-09 17:20 158 3 gusting 5 26.7
2020-Aug-09 17:15 180 2 gusting 4 26.7
2020-Aug-09 17:10 225 4 gusting 5 26.7
2020-Aug-09 17:05 180 4 gusting 5 27.2
2020-Aug-09 16:55 203 6 gusting 6 26.7
2020-Aug-09 16:50 180 3 gusting 6 26.7
2020-Aug-09 16:45 023 6 gusting 6 26.7
2020-Aug-09 16:40 158 5 gusting 7 26.7
2020-Aug-09 16:35 045 3 gusting 7 26.7
2020-Aug-09 16:30 270 1 gusting 6 26.1
2020-Aug-09 16:25 248 2 gusting 7 26.7
2020-Aug-09 16:20 248 2 gusting 6 26.1
2020-Aug-09 16:15 225 1 gusting 6 26.1
2020-Aug-09 16:10 248 3 gusting 6 26.7
2020-Aug-09 16:05 270 7 gusting 7 26.7
2020-Aug-09 16:00 270 2 gusting 2 26.1
2020-Aug-09 15:55 045 1 gusting 1 26.1
2020-Aug-09 15:50 158 3 gusting 6 26.1
2020-Aug-09 15:45 248 3 gusting 5 26.1
2020-Aug-09 15:40 248 2 gusting 5 26.1
2020-Aug-09 15:35 293 4 gusting 6 26.1
2020-Aug-09 15:30 270 6 gusting 6 26.1
2020-Aug-09 15:25 203 2 gusting 5 25.6
2020-Aug-09 15:20 225 2 gusting 6 26.1
2020-Aug-09 15:15 26.1
2020-Aug-09 15:10 135 3 gusting 6 26.1
2020-Aug-09 15:05 135 2 gusting 5 26.7
2020-Aug-09 15:00 113 0 gusting 3 26.1
2020-Aug-09 14:55 225 3 gusting 6 26.1
2020-Aug-09 14:50 180 4 gusting 6 26.7
2020-Aug-09 14:45 180 0 gusting 4 26.1
2020-Aug-09 14:40 225 2 gusting 4 26.7
2020-Aug-09 14:35 158 1 gusting 4 26.7
2020-Aug-09 14:30 248 1 gusting 6 26.7
2020-Aug-09 14:25 248 1 gusting 3 26.1
2020-Aug-09 14:20 225 1 gusting 4 26.7
2020-Aug-09 14:15 225 1 gusting 3 26.7
2020-Aug-09 14:10 248 0 gusting 3 26.7
2020-Aug-09 14:05 203 1 gusting 3 26.7
2020-Aug-09 14:00 203 2 gusting 2 26.7
2020-Aug-09 13:55 225 26.1
2020-Aug-09 13:50 293 2 gusting 2 26.1
2020-Aug-09 13:45 045 2 gusting 2 25.6
2020-Aug-09 13:40 045 0 gusting 4 25.6
2020-Aug-09 13:35 225 4 gusting 4 25.6
2020-Aug-09 13:30 225 1 gusting 2 25.6
2020-Aug-09 13:25 293 0 gusting 2 25.0
2020-Aug-09 13:20 293 1 gusting 1 24.4
2020-Aug-09 13:15 225 1 gusting 3 24.4
2020-Aug-09 13:10 225 1 gusting 3 24.4
2020-Aug-09 13:05 180 24.4
2020-Aug-09 13:00 248 1 gusting 2 24.4
2020-Aug-09 12:55 225 0 gusting 2 25.0
2020-Aug-09 12:50 225 24.4
2020-Aug-09 12:45 225 24.4
2020-Aug-09 12:40 270 23.9
2020-Aug-09 12:35 180 0 gusting 3 23.3
2020-Aug-09 12:30 203 2 gusting 4 23.3
2020-Aug-09 12:25 113 1 gusting 3 23.3
2020-Aug-09 12:20 270 1 gusting 6 23.3
2020-Aug-09 12:15 225 1 gusting 3 23.3
2020-Aug-09 12:10 248 22.8
2020-Aug-09 12:05 248 0 gusting 3 22.8
2020-Aug-09 12:00 023 0 gusting 1 22.8
2020-Aug-09 11:55 180 2 gusting 2 22.2
2020-Aug-09 11:50 158 0 gusting 3 22.2
2020-Aug-09 11:45 225 0 gusting 3 22.2
2020-Aug-09 11:40 225 1 gusting 3 22.2
2020-Aug-09 11:35 225 21.7
2020-Aug-09 11:30 225 21.7
2020-Aug-09 11:25 270 0 gusting 2 21.7
2020-Aug-09 11:20 225 0 gusting 1 21.1
2020-Aug-09 11:15 225 1 gusting 2 21.1
2020-Aug-09 11:10 225 21.1
2020-Aug-09 11:05 203 0 gusting 3 21.1
2020-Aug-09 11:00 270 1 gusting 3 20.6
2020-Aug-09 10:55 248 0 gusting 1 20.6
2020-Aug-09 10:45 225 20.6
2020-Aug-09 10:40 225 20.0
2020-Aug-09 10:35 270 20.0
2020-Aug-09 10:30 315 20.0
2020-Aug-09 10:25 113 0 gusting 0 19.4
2020-Aug-09 10:20 270 19.4
2020-Aug-09 10:15 293 19.4
2020-Aug-09 10:10 023 19.4
2020-Aug-09 10:05 315 18.9
2020-Aug-09 10:00 270 19.4
2020-Aug-09 09:55 270 19.4
2020-Aug-09 09:50 248 0 gusting 0 19.4
2020-Aug-09 09:45 270 18.9
2020-Aug-09 09:40 270 19.4
2020-Aug-09 09:35 270 19.4
2020-Aug-09 09:30 270 18.9
2020-Aug-09 09:25 270 19.4
2020-Aug-09 09:20 270 19.4
2020-Aug-09 09:15 270 19.4
2020-Aug-09 09:10 293 19.4
2020-Aug-09 09:05 293 19.4
2020-Aug-09 09:00 270 19.4
2020-Aug-09 08:55 045 19.4
2020-Aug-09 08:50 293 19.4
2020-Aug-09 08:45 270 19.4
2020-Aug-09 08:40 315 19.4
2020-Aug-09 08:30 270 19.4
2020-Aug-09 08:25 270 19.4
2020-Aug-09 08:20 090 19.4
2020-Aug-09 08:15 248 19.4
2020-Aug-09 08:10 225 19.4
2020-Aug-09 08:05 270 0 gusting 1 19.4
2020-Aug-09 08:00 248 19.4
2020-Aug-09 07:55 270 19.4
2020-Aug-09 07:50 203 19.4
2020-Aug-09 07:45 270 19.4
2020-Aug-09 07:40 270 19.4
2020-Aug-09 07:35 270 19.4
2020-Aug-09 07:30 203 19.4
2020-Aug-09 07:25 270 19.4
2020-Aug-09 07:20 180 19.4
2020-Aug-09 07:15 248 20.0
2020-Aug-09 07:10 225 19.4
2020-Aug-09 07:05 248 20.0
2020-Aug-09 07:00 113 0 gusting 1 20.0
2020-Aug-09 06:55 270 0 gusting 0 20.0
2020-Aug-09 06:50 180 20.0
2020-Aug-09 06:45 180 0 gusting 0 20.0
2020-Aug-09 06:40 338 20.0
2020-Aug-09 06:35 225 20.6
2020-Aug-09 06:30 270 20.6
2020-Aug-09 06:25 270 20.6
2020-Aug-09 06:20 270 20.6
2020-Aug-09 06:15 270 20.6
2020-Aug-09 06:10 248 20.6
2020-Aug-09 06:05 203 1 gusting 1 20.6
2020-Aug-09 06:00 270 20.6
2020-Aug-09 05:55 248 20.6
2020-Aug-09 05:50 248 20.6
2020-Aug-09 05:45 270 0 gusting 0 20.6
2020-Aug-09 05:40 203 1 gusting 1 20.6
2020-Aug-09 05:35 225 20.6
2020-Aug-09 05:30 225 20.6
2020-Aug-09 05:25 270 20.6
2020-Aug-09 05:20 225 0 gusting 0 20.6
2020-Aug-09 05:15 270 21.1
2020-Aug-09 05:10 270 21.1
2020-Aug-09 05:05 225 0 gusting 2 21.1
2020-Aug-09 05:00 023 21.1
2020-Aug-09 04:55 270 21.1
2020-Aug-09 04:50 248 21.1
2020-Aug-09 04:45 225 21.1
2020-Aug-09 04:40 225 21.1
2020-Aug-09 04:35 270 1 gusting 1 21.1
2020-Aug-09 04:30 270 21.1
2020-Aug-09 04:25 158 21.1
2020-Aug-09 04:20 248 21.1
2020-Aug-09 04:15 270 21.1
2020-Aug-09 04:10 248 21.1
2020-Aug-09 04:05 225 2 gusting 4 21.1
2020-Aug-09 04:00 158 0 gusting 2 21.1
2020-Aug-09 03:55 225 1 gusting 2 21.7
2020-Aug-09 03:50 203 1 gusting 1 21.7
2020-Aug-09 03:45 270 0 gusting 2 21.7
2020-Aug-09 03:40 180 21.7
2020-Aug-09 03:35 225 21.7
2020-Aug-09 03:30 270 21.7
2020-Aug-09 03:25 293 1 gusting 3 21.7
2020-Aug-09 03:20 248 21.7
2020-Aug-09 03:15 270 0 gusting 3 21.7
2020-Aug-09 03:10 248 21.7
2020-Aug-09 03:05 270 21.7
2020-Aug-09 03:00 203 0 gusting 2 21.7
2020-Aug-09 02:55 270 21.7
2020-Aug-09 02:50 270 1 gusting 2 21.7
2020-Aug-09 02:45 248 21.7
2020-Aug-09 02:40 203 1 gusting 3 21.7
2020-Aug-09 02:35 270 21.7
2020-Aug-09 02:30 203 21.7
2020-Aug-09 02:25 270 21.7
2020-Aug-09 02:20 248 1 gusting 1 21.7
2020-Aug-09 02:15 180 0 gusting 2 21.7
2020-Aug-09 02:10 248 21.7
2020-Aug-09 02:05 270 21.7
2020-Aug-09 02:00 270 2 gusting 2 21.7
2020-Aug-09 01:55 248 21.7
2020-Aug-09 01:50 270 1 gusting 2 21.7
2020-Aug-09 01:45 248 0 gusting 4 21.7
2020-Aug-09 01:40 225 0 gusting 1 21.7
2020-Aug-09 01:35 225 1 gusting 2 21.7
2020-Aug-09 01:30 248 1 gusting 4 21.7
2020-Aug-09 01:25 293 21.7
2020-Aug-09 01:20 270 1 gusting 2 21.7
2020-Aug-09 01:15 270 0 gusting 2 21.7
2020-Aug-09 01:10 225 0 gusting 3 21.7
2020-Aug-09 01:05 248 21.7
2020-Aug-09 01:00 248 21.7
2020-Aug-09 00:55 293 1 gusting 1 22.2
2020-Aug-09 00:50 225 0 gusting 2 22.2
2020-Aug-09 00:45 225 0 gusting 4 22.2
2020-Aug-09 00:40 270 22.2
2020-Aug-09 00:35 248 6 gusting 6 22.2
2020-Aug-09 00:30 270 22.2
2020-Aug-09 00:25 248 22.2
2020-Aug-09 00:20 180 22.2
2020-Aug-09 00:15 293 22.2
2020-Aug-09 00:10 225 22.2
2020-Aug-09 00:05 270 0 gusting 1 22.2
2020-Aug-09 00:00 338 22.2
2020-Aug-08 23:55 225 22.2
2020-Aug-08 23:50 180 0 gusting 2 22.2
2020-Aug-08 23:45 270 0 gusting 2 22.8
2020-Aug-08 23:40 293 0 gusting 1 22.8
2020-Aug-08 23:35 293 1 gusting 1 22.8
2020-Aug-08 23:30 158 0 gusting 2 22.8
2020-Aug-08 23:25 270 0 gusting 2 22.8
2020-Aug-08 23:20 180 0 gusting 1 23.3
2020-Aug-08 23:10 203 0 gusting 0 23.3
2020-Aug-08 23:05 203 1 gusting 1 23.9
2020-Aug-08 23:00 158 23.9
2020-Aug-08 22:55 315 1 gusting 2 23.9
2020-Aug-08 22:50 225 23.9
2020-Aug-08 22:45 23.9
2020-Aug-08 22:40 180 0 gusting 2 23.9
2020-Aug-08 22:30 158 1 gusting 1 23.9
2020-Aug-08 22:20 203 0 gusting 1 23.9
2020-Aug-08 22:15 158 1 gusting 1 23.9
2020-Aug-08 22:10 23.9
2020-Aug-08 22:05 068 3 gusting 3 24.4
2020-Aug-08 22:00 068 0 gusting 2 24.4
2020-Aug-08 21:55 113 24.4
2020-Aug-08 21:50 315 0 gusting 3 24.4
2020-Aug-08 21:45 270 24.4
2020-Aug-08 21:40 270 0 gusting 0 25.0
2020-Aug-08 21:30 270 1 gusting 2 25.6
2020-Aug-08 21:25 225 0 gusting 1 25.6
2020-Aug-08 21:20 248 0 gusting 2 26.1
2020-Aug-08 21:15 315 0 gusting 2 26.7
2020-Aug-08 21:10 113 0 gusting 1 26.7
2020-Aug-08 21:05 270 26.1
2020-Aug-08 21:00 248 1 gusting 1 26.7
2020-Aug-08 20:55 225 1 gusting 3 26.7
2020-Aug-08 20:50 203 1 gusting 1 27.2
2020-Aug-08 20:45 270 1 gusting 3 26.7
2020-Aug-08 20:40 293 26.7
2020-Aug-08 20:35 26.7
2020-Aug-08 20:30 225 0 gusting 0 26.7
2020-Aug-08 20:25 270 2 gusting 2 27.2
2020-Aug-08 20:20 225 26.7
2020-Aug-08 20:15 270 27.2
2020-Aug-08 20:10 248 26.7
2020-Aug-08 20:05 158 1 gusting 2 27.2
2020-Aug-08 20:00 045 0 gusting 2 27.2
2020-Aug-08 19:55 338 2 gusting 2 27.2
2020-Aug-08 19:50 225 1 gusting 2 27.2
2020-Aug-08 19:45 270 27.2
2020-Aug-08 19:40 158 0 gusting 2 27.2
2020-Aug-08 19:35 270 1 gusting 2 27.2
2020-Aug-08 19:30 248 0 gusting 3 27.2
2020-Aug-08 19:25 158 1 gusting 1 27.2
2020-Aug-08 19:20 225 0 gusting 1 27.2
2020-Aug-08 19:15 248 1 gusting 3 27.8
2020-Aug-08 19:10 225 0 gusting 2 27.8
2020-Aug-08 19:05 068 0 gusting 2 27.2
2020-Aug-08 19:00 338 1 gusting 3 27.8